Location: Asheville, NC
(35.6000°N, 82.5500°W)
Time: 06:04:06
(UTC-04:00)

Vanguard 1 Rocket - Pass Details

Date: 12 February 2018
Orbit: 652 x 4225 km, 34.3° (Epoch: 19 May)

Event Time Altitude Azimuth Distance (km) Brightness Sun altitude
Rises 20:45:38 0° 176° (S) 6,497 11.7 -32.3°
Reaches altitude 10° 20:52:23 10° 158° (SSE) 6,147 11.3 -33.6°
Enters shadow 20:55:07 13° 150° (SSE) 6,111 11.2 -34.2°
Maximum altitude 21:03:35 17° 124° (SE) 6,344 - -35.9°
Drops below altitude 10° 21:16:38 10° 93° (E) 7,404 - -38.5°
Sets 21:26:04 0° 77° (ENE) 8,426 - -40.4°
